Location: Fountain Hills
(33.6120°N, 111.7170°W)
Time: 04:07:17
(UTC-07:00)

Daily predictions for brighter satellites

Satellite Brightness Start Highest point End
(mag) Time Altitude Azimuth Time Altitude Azimuth Time Altitude Azimuth
Cosmos 2360 Rocket 4.0 03:09:38 27° NE 03:09:38 27° NE 03:12:09 10° NNE
ADEOS II 4.4 03:14:05 10° NE 03:17:35 18° E 03:18:42 17° ESE
CENTAUR R/B 4.5 03:30:50 18° NNW 03:30:50 18° NNW 03:33:53 10° N
Cosmos 2333 Rocket 4.4 03:35:41 14° SE 03:38:24 20° E 03:42:25 10° NE
Cosmos 2327 Rocket 4.4 03:51:33 10° N 03:57:50 84° E 03:58:28 73° SSE
Hubble Space Telescope 3.6 03:59:49 11° SE 03:59:49 11° SE 04:00:08 10° SE
Nadezhda 1 Rocket 3.8 04:01:18 84° SSE 04:01:31 88° E 04:07:36 10° N
Meteor 1-12 Rocket 4.2 03:58:13 10° N 04:03:53 79° E 04:05:05 57° SSE
Cosmos 1570 Rocket 4.2 04:04:43 65° NNE 04:04:43 65° NNE 04:09:10 10° NNE
Cosmos 2333 4.2 04:03:49 73° SE 04:04:03 74° ESE 04:09:44 10° NNE
Tiangong 2 4.2 04:06:42 15° NE 04:06:42 15° NE 04:07:38 10° ENE
Meteor 2-13 Rocket 4.4 04:01:41 10° N 04:07:51 83° E 04:11:32 26° S
MOS 1 Rocket 4.5 04:10:20 10° N 04:12:55 31° N 04:12:55 31° N
CZ-4B DEB 4.4 04:11:51 10° NNE 04:17:25 71° ESE 04:19:44 36° S
CZ-4B R/B 3.4 04:12:14 10° NNE 04:17:51 72° ESE 04:20:11 36° S
Cosmos 2074 Rocket 4.0 04:14:40 10° NNW 04:20:26 56° W 04:20:26 56° W
ERS-2 4.3 04:18:09 10° NE 04:21:14 24° E 04:23:41 13° SSE
IRS-1C Rocket 4.0 04:20:38 10° NNE 04:25:54 89° WNW 04:27:23 49° SSW
CZ-2C R/B 4.3 04:23:53 10° SSE 04:28:22 56° ENE 04:32:48 10° N
IRAS Rocket 4.2 04:25:54 10° NNE 04:31:29 87° ESE 04:34:31 28° SSW
Okean O Rocket 1.8 04:27:40 10° N 04:31:30 55° NW 04:31:30 55° NW
Cosmos 2219 Rocket 2.1 04:30:15 38° SSW 04:32:29 83° ESE 04:38:05 10° NNE
Cosmos 1025 Rocket 4.3 04:28:56 10° SSE 04:33:00 40° E 04:37:07 10° NNE
COSMOS 2428 2.8 04:33:59 49° W 04:34:31 51° WNW 04:40:03 10° N
Lacrosse 4 Rocket 1.8 04:40:03 48° S 04:40:03 48° S 04:43:20 10° SSE
NOSS 0 Rocket 4.1 04:37:08 17° S 04:42:03 70° ESE 04:48:11 10° NNE
Cosmos 1844 Rocket 2.8 04:38:22 10° NNW 04:43:57 74° ENE 04:49:30 10° SSE
DELTA 2 R/B (1) 4.1 04:43:29 32° WNW 04:45:37 49° N 04:50:59 10° ENE
Okean-O 3.6 04:41:39 10° NNE 04:45:56 46° E 04:50:11 10° S
Cosmos 2360 Rocket 3.9 04:51:24 16° NW 04:51:24 16° NW 04:54:27 10° NNW
Cosmos 2285 Rocket 4.0 04:48:59 12° SSW 04:55:03 86° WNW 05:01:32 10° NNE
Aureole 2 Rocket 2.8 04:53:44 21° S 04:56:03 66° ESE 04:59:30 10° NNE
Meteor 1-19 Rocket 4.2 04:53:22 21° SSW 04:57:00 57° W 05:02:37 10° N
Cosmos 1814 Rocket 4.1 04:52:11 10° S 04:57:23 77° ESE 05:02:33 10° NNE
ADEOS II 2.4 04:52:28 10° N 04:57:27 45° WNW 04:59:40 29° SW
SAR-Lupe-3 4.4 04:54:06 10° S 04:57:40 80° WSW 05:01:17 10° NNW
Cosmos 2278 Rocket 3.6 04:54:22 10° N 04:59:40 39° ENE 05:04:56 10° SE
Cosmos 2237 Rocket 2.2 04:54:55 10° SSW 05:00:30 83° ESE 05:06:13 10° NNE
Cosmos 405 Rocket 3.1 04:57:29 10° S 05:01:32 68° E 05:05:33 10° NNE
Cosmos 1666 2.6 05:02:10 10° N 05:06:02 75° W 05:09:54 10° S
Okean 2 3.6 05:02:05 10° S 05:06:12 72° E 05:10:22 10° N
Meteor 2-4 Rocket 3.6 05:01:37 10° SSW 05:07:12 66° W 05:12:40 10° N
Gblst 52 Del rocket 4.4 05:02:23 10° NW 05:08:14 89° SW 05:14:53 10° SE
Cosmos 332 Rocket 4.2 05:03:48 10° S 05:08:39 66° ESE 05:13:30 10° NNE
Cosmos 1295 Rocket 4.4 05:02:54 10° N 05:09:07 81° W 05:15:14 10° S
Meteor 2-19 Rocket 4.3 05:05:21 10° N 05:11:25 75° W 05:17:26 10° S
ATLAS 5 CENTAUR R/B 3.4 05:06:45 10° NNW 05:12:43 50° ENE 05:19:04 10° SE
Cosmos 1743 3.4 05:10:10 10° NNW 05:13:36 31° W 05:15:26 20° SW
OAO 3 Copernicus 4.4 05:13:43 21° W 05:17:04 77° N 05:22:06 10° E
USA 215 3.2 05:11:47 10° SE 05:18:20 75° SW 05:24:55 10° NW
GOES 2 Rocket 4.0 05:17:58 21° WSW 05:20:59 46° S 05:26:51 10° ESE
Cosmos 2366 rocket 4.4 05:14:45 10° N 05:21:05 69° E 05:27:24 10° SSE
CZ-4B R/B 4.1 05:17:31 10° N 05:21:59 62° WNW 05:26:22 10° SSW
Cosmos 2333 Rocket 2.5 05:17:45 15° SW 05:22:13 46° WNW 05:27:44 10° N
Meteor 1-31 Rocket 2.9 05:19:45 10° N 05:23:26 50° WNW 05:27:07 10° SSW
Cosmos 2058 Rocket 4.5 05:19:20 10° N 05:23:35 42° E 05:27:47 10° SSE
EXPRESS MD2 3.3 05:19:52 16° SW 05:24:18 77° NW 05:27:22 10° NE
EO 1 Del DPAF 4.4 05:24:02 19° WSW 05:25:07 21° W 05:28:06 10° NW
Okean 1-7 Rocket 4.3 05:23:06 11° SW 05:26:55 33° W 05:31:00 10° NNW
Cosmos 1867 3.9 05:21:34 10° NNW 05:27:01 71° ENE 05:32:25 10° SE
OTV 4 0.7 05:27:14 20° SW 05:28:53 51° SSE 05:31:36 10° ENE
USA 229 DEB 4.3 05:25:44 15° WSW 05:30:48 38° NW 05:37:11 10° NNE
USA 229 4.3 05:25:48 15° WSW 05:30:54 38° NW 05:37:17 10° NNE
Feng Yun 1-1 Rocket 4.4 05:27:43 10° N 05:33:26 58° WNW 05:38:58 10° SSW
Hubble Space Telescope 2.0 05:35:11 11° SW 05:38:38 32° S 05:42:21 10° ESE
Thor Agena Rocket 3.4 05:33:45 10° S 05:38:48 78° WSW 05:43:52 10° NNW
IUS-18 SRM-1 3.7 05:38:54 10° SSW 05:40:01 13° SSE 05:41:18 10° SE
Cosmos 1606 Rocket 3.6 05:36:55 10° NNW 05:41:22 66° W 05:45:47 10° S
Tiangong 2 1.0 05:38:53 10° WNW 05:42:01 84° SSW 05:45:09 10° ESE
NOSS 3-1 (A) 3.4 05:37:18 10° SSW 05:42:59 85° ESE 05:49:15 10° NNE
Cosmos 990 Rocket 4.0 05:39:55 10° NNW 05:45:06 86° WSW 05:50:15 10° SSE
Iridium 2 4.1 05:41:34 10° NNW 05:45:11 41° W 05:48:48 10° SSW
NOSS 3-1 (C) 3.4 05:39:56 10° SW 05:45:34 66° WNW 05:51:48 10° NNE
Cosmos 2150 Rocket 4.1 05:41:25 10° NNW 05:46:39 61° WSW 05:51:56 10° S
GPS 2-04 Rocket1 2.6 05:45:09 11° WSW 05:48:56 85° NNW 05:52:42 10° ENE
SL-8 Rocket 4.2 05:45:12 10° NNW 05:51:05 46° W 05:56:54 10° SSW
Cosmos 1898 Rocket 3.9 05:47:25 10° NW 05:52:12 39° W 05:56:57 10° SSW
Cosmos 1844 4.3 05:47:25 10° NW 05:52:34 35° WSW 05:57:39 10° SSW
Meteor 2-21 4.5 05:48:23 10° N 05:54:36 78° W 06:00:46 10° S
ERS-2 3.8 05:52:23 10° NNW 05:54:43 16° WNW 05:57:04 10° WSW
SL-16 R/B 2.2 05:51:25 10° SSW 05:57:04 79° WNW 06:02:46 10° NNE
